[[{"header":{"parameterUnit":"m.s-1","parameterCategory":1,"la1":30.2991,"la2":30.254,"lo1":-89.0895,"lo2":-89.0444,"dy":0.0017,"dx":0.0017,"nx":28,"ny":28,"refTime":"2024-09-30T21:00:00:Z","depth":0,"parameterNumber":2,"parameterNumberName":"U-component_of_WINDS"},"data":[0,0,0,0,0,0,0,0,0,0,0,0,0,0,0,0,0,0,0,0,0,0,0,0,0,0,0,0,0,0,0,0,0,0,0,0,0,0,0,0,0,0,0,0,0,0,0,0,0,0,0,0,0,0,0,0,0,0,-0.5191,-0.5191,0,-0.5196,-0.5196,-0.5196,-0.5182,-0.5181,-0.5181,-0.518,-0.5185,-0.5186,-0.5186,0,0,0,0,0,0,0,0,0,0,0,0,0,-0.5168,-0.5169,-0.5191,-0.5191,-0.5191,-0.5196,-0.5196,-0.5196,-0.5182,-0.5181,-0.5181,-0.518,-0.5185,-0.5186,-0.5186,0,0,0,0,0,0,0,0,0,0,0,0,0,-0.5176,-0.5169,-0.5191,-0.5185,-0.5184,-0.5196,-0.5196,-0.5196,-0.5182,-0.5181,-0.5181,-0.518,-0.5185,-0.5186,-0.5186,-0.5205,0,0,-0.5189,-0.5189,0,0,0,0,0,0,0,0,-0.5176,-0.5177,-0.5185,-0.5185,-0.5184,-0.5188,-0.519,-0.5199,-0.5182,-0.5183,-0.518,-0.518,-0.5186,-0.5187,-0.5189,-0.5205,-0.5205,-0.5189,-0.5189,-0.519,-0.519,0,0,0,0,0,0,0,-0.5175,-0.5177,-0.5193,-0.5186,-0.5185,-0.5181,-0.5182,-0.5191,-0.5188,-0.5183,-0.5182,-0.5182,-0.5186,-0.5189,-0.5189,-0.5205,-0.5189,-0.519,-0.519,-0.519,-0.5236,-0.5237,0,0,0,0,0,0,-0.5176,-0.5176,-0.5193,-0.5193,-0.5178,-0.5182,-0.5183,-0.5187,-0.5188,-0.5188,-0.5183,-0.5182,-0.5188,-0.5189,-0.519,-0.5212,-0.519,-0.519,-0.5191,-0.5235,-0.5236,-0.5237,0,0,0,0,0,0,-0.5175,-0.5177,-0.5193,-0.5185,-0.5186,-0.5183,-0.5189,-0.5188,-0.519,-0.5188,-0.5188,-0.5186,-0.5187,-0.5188,-0.5201,-0.5212,-0.5191,-0.5192,-0.5235,-0.5236,-0.5237,-0.5256,0,0,0,0,0,0,-0.5175,-0.5177,-0.5184,-0.5185,-0.5187,-0.5204,-0.5189,-0.5188,-0.5192,-0.519,-0.5191,-0.5191,-0.5187,-0.52,-0.5202,-0.5212,-0.5192,-0.5234,-0.5235,-0.5236,-0.5254,-0.5257,-0.526,0,0,0,0,0,-0.5174,-0.5189,-0.5185,-0.5187,-0.5196,-0.5205,-0.5206,-0.5201,-0.5193,-0.52,-0.5198,-0.5191,-0.521,-0.5201,-0.5203,-0.5214,-0.5233,-0.5235,-0.5236,-0.5253,-0.5257,-0.526,0,0,0,0,0,0,-0.519,-0.5189,-0.5184,-0.52,-0.5203,-0.5203,-0.5211,-0.5205,-0.521,-0.5208,-0.5202,-0.5202,-0.5216,-0.5216,-0.5207,-0.5232,-0.522,-0.5222,-0.5232,-0.5236,-0.5239,-0.5239,-0.5193,0,0,0,0,0,-0.5195,-0.5203,-0.5202,-0.5216,-0.5218,-0.5214,-0.5218,-0.5214,-0.5217,-0.5218,-0.5217,-0.522,-0.5226,-0.5231,-0.5236,-0.5254,-0.5254,-0.5262,-0.5265,-0.5267,-0.527,-0.5279,-0.5283,-0.5242,-0.5242,-0.5242,0,0,-0.5207,-0.5207,-0.5213,-0.522,-0.5221,-0.523,-0.5215,-0.5225,-0.5231,-0.5219,-0.5231,-0.5231,-0.5233,-0.5248,-0.5255,-0.5249,-0.5281,-0.527,-0.5271,-0.5273,-0.5282,-0.5285,-0.5289,-0.5244,-0.5243,-0.5243,0,0,-0.5232,-0.5233,-0.5245,-0.5247,-0.525,-0.5247,-0.525,-0.525,-0.525,-0.5262,-0.5253,-0.526,-0.5272,-0.5274,-0.5276,-0.5302,-0.5295,-0.5304,-0.532,-0.5329,-0.5333,-0.5335,-0.5346,-0.5349,-0.5306,-0.5306,-0.5306,0,-0.5246,-0.5258,-0.5252,-0.5262,-0.5266,-0.5255,-0.5268,-0.527,-0.5274,-0.5276,-0.5269,-0.5283,-0.5284,-0.53,-0.5306,-0.5308,-0.5312,-0.5304,-0.5333,-0.5335,-0.5338,-0.5348,-0.5351,-0.5307,-0.5307,-0.5307,-0.5307,0,-0.5276,-0.5284,-0.5294,-0.5299,-0.5303,-0.5314,-0.531,-0.5315,-0.531,-0.5308,-0.5321,-0.5321,-0.5327,-0.533,-0.5326,-0.5346,-0.5342,-0.5334,-0.5322,-0.5343,-0.5352,-0.5356,-0.5309,-0.5308,-0.5308,-0.5308,0,0,-0.5312,-0.5313,-0.5317,-0.5319,-0.5321,-0.5328,-0.5338,-0.5344,-0.5349,-0.5352,-0.5361,-0.537,-0.5363,-0.5366,-0.5361,-0.5369,-0.5391,-0.536,-0.536,-0.5367,-0.5414,-0.5421,-0.5425,-0.5386,-0.5387,-0.5387,-0.5414,0,-0.5338,-0.5357,-0.5352,-0.537,-0.5379,-0.5368,-0.5377,-0.5379,-0.5378,-0.5384,-0.5382,-0.539,-0.5379,-0.5381,-0.5388,-0.5387,-0.54,-0.5384,-0.5395,-0.5395,-0.5396,-0.543,-0.5437,-0.5463,-0.5417,-0.5418,-0.5418,0,-0.5371,-0.5376,-0.5396,-0.5396,-0.5399,-0.5408,-0.5413,-0.5419,-0.5421,-0.5419,-0.5423,-0.5416,-0.5427,-0.5413,-0.5428,-0.5417,-0.5421,-0.5421,-0.5422,-0.5424,-0.5409,-0.5434,-0.5471,-0.5475,-0.5424,-0.5423,-0.5423,0,-0.5397,-0.5408,-0.5422,-0.5424,-0.5424,-0.5431,-0.5431,-0.5433,-0.5437,-0.5441,-0.5443,-0.5449,-0.5452,-0.5456,-0.5451,-0.5442,-0.5467,-0.5453,-0.5466,-0.5466,-0.5473,-0.5473,-0.5513,-0.5473,-0.5473,-0.5473,-0.5473,0,-0.5427,-0.544,-0.5434,-0.5442,-0.5456,-0.5449,-0.5463,-0.5462,-0.5464,-0.5472,-0.5462,-0.547,-0.5463,-0.547,-0.5466,-0.5479,-0.548,-0.5479,-0.5478,-0.5481,-0.5481,-0.5484,-0.5483,-0.5474,-0.5474,-0.5474,-0.5474,0,-0.546,-0.5456,-0.547,-0.5469,-0.5469,-0.548,-0.5479,-0.5487,-0.5484,-0.5495,-0.5497,-0.5493,-0.5501,-0.5496,-0.5503,-0.5501,-0.5518,-0.5514,-0.5518,-0.5517,-0.5531,-0.5531,-0.5575,-0.5581,-0.5537,-0.5537,-0.5538,0,-0.548,-0.549,-0.549,-0.5495,-0.5496,-0.5504,-0.5508,-0.5502,-0.5506,-0.5509,-0.5517,-0.5523,-0.5529,-0.5542,-0.554,-0.5546,-0.5542,-0.5558,-0.5543,-0.5546,-0.5544,-0.5544,-0.5545,-0.5561,-0.5561,-0.5562,-0.5562,0,-0.5517,-0.5514,-0.5521,-0.5527,-0.5532,-0.5536,-0.5539,-0.5544,-0.5537,-0.5543,-0.5551,-0.5555,-0.5563,-0.557,-0.5575,-0.5575,-0.5568,-0.5566,-0.557,-0.5574,-0.5576,-0.5576,-0.5527,-0.5566,-0.5566,-0.5565,-0.5565,-0.5565,-0.5544,-0.5553,-0.5555,-0.5562,-0.5564,-0.5567,-0.5575,-0.5573,-0.558,-0.5586,-0.5581,-0.5591,-0.5592,-0.5598,-0.56,-0.5607,-0.5601,-0.5606,-0.5607,-0.5609,-0.5612,-0.5574,-0.5608,-0.5608,-0.5608,-0.5607,-0.5607,0,-0.5582,-0.5582,-0.5589,-0.5594,-0.56,-0.5592,-0.5596,-0.5601,-0.561,-0.5612,-0.5617,-0.5627,-0.5634,-0.5632,-0.5638,-0.5644,-0.5641,-0.5646,-0.5646,-0.5647,-0.5616,-0.5613,-0.5649,-0.5649,-0.5649,-0.5649,-0.5649,-0.5649,-0.5602,-0.5616,-0.5614,-0.5628,-0.5629,-0.5638,-0.5641,-0.5644,-0.5646,-0.5657,-0.5662,-0.5661,-0.5662,-0.5668,-0.5674,-0.5673,-0.5676,-0.5683,-0.5681,-0.5653,-0.5649,-0.5645,-0.5642,-0.5683,-0.5683,-0.5711,-0.5712,-0.5712]},{"header":{"parameterUnit":"m.s-1","parameterCategory":1,"la1":30.2991,"la2":30.254,"lo1":-89.0895,"lo2":-89.0444,"dy":0.0017,"dx":0.0017,"nx":28,"ny":28,"refTime":"2024-09-30T21:00:00:Z","depth":0,"parameterNumber":3,"parameterNumberName":"V-component_of_WINDS"},"data":[0,0,0,0,0,0,0,0,0,0,0,0,0,0,0,0,0,0,0,0,0,0,0,0,0,0,0,0,0,0,0,0,0,0,0,0,0,0,0,0,0,0,0,0,0,0,0,0,0,0,0,0,0,0,0,0,0,0,-2.4577,-2.4577,0,-2.4625,-2.4625,-2.4626,-2.4622,-2.4621,-2.4621,-2.462,-2.4667,-2.4669,-2.467,0,0,0,0,0,0,0,0,0,0,0,0,0,-2.448,-2.4482,-2.4577,-2.4577,-2.4578,-2.4625,-2.4625,-2.4626,-2.4622,-2.4621,-2.462,-2.462,-2.4666,-2.4668,-2.4671,0,0,0,0,0,0,0,0,0,0,0,0,0,-2.4524,-2.4482,-2.4576,-2.4582,-2.4583,-2.4625,-2.4625,-2.4626,-2.4622,-2.4621,-2.462,-2.4619,-2.4665,-2.4668,-2.4671,-2.471,0,0,-2.468,-2.4681,0,0,0,0,0,0,0,0,-2.4522,-2.4528,-2.458,-2.4581,-2.4582,-2.4616,-2.4608,-2.4654,-2.4623,-2.4607,-2.462,-2.4619,-2.4651,-2.4655,-2.4666,-2.4712,-2.4714,-2.468,-2.4682,-2.4683,-2.4684,0,0,0,0,0,0,0,-2.4519,-2.4526,-2.4596,-2.4581,-2.4582,-2.4581,-2.4586,-2.4617,-2.4634,-2.4608,-2.4608,-2.4614,-2.4651,-2.4663,-2.4667,-2.4715,-2.468,-2.4682,-2.4684,-2.4685,-2.4798,-2.4799,0,0,0,0,0,0,-2.4515,-2.4523,-2.4594,-2.4597,-2.4549,-2.4584,-2.4589,-2.4606,-2.4634,-2.4637,-2.4615,-2.4614,-2.4659,-2.4664,-2.4669,-2.4718,-2.4683,-2.4686,-2.4687,-2.4797,-2.4798,-2.4799,0,0,0,0,0,0,-2.4513,-2.4521,-2.4592,-2.456,-2.4569,-2.4586,-2.4606,-2.4608,-2.462,-2.4639,-2.4642,-2.4624,-2.4658,-2.4665,-2.47,-2.472,-2.4687,-2.4689,-2.4795,-2.4797,-2.4799,-2.4816,0,0,0,0,0,0,-2.451,-2.452,-2.4536,-2.456,-2.4571,-2.4624,-2.4607,-2.461,-2.4626,-2.4624,-2.4649,-2.4651,-2.4658,-2.4696,-2.4703,-2.4723,-2.4692,-2.4793,-2.4796,-2.4798,-2.4814,-2.4819,-2.4822,0,0,0,0,0,-2.4506,-2.4538,-2.4537,-2.4545,-2.4591,-2.4625,-2.4631,-2.4638,-2.4627,-2.4643,-2.4655,-2.4651,-2.4716,-2.47,-2.4708,-2.4729,-2.4792,-2.4795,-2.4798,-2.4812,-2.4818,-2.4822,0,0,0,0,0,0,-2.4514,-2.4541,-2.454,-2.458,-2.4601,-2.4624,-2.4644,-2.4643,-2.4666,-2.4664,-2.4671,-2.4677,-2.4713,-2.4724,-2.4706,-2.4769,-2.4753,-2.4757,-2.4761,-2.4766,-2.477,-2.4768,-2.4694,0,0,0,0,0,-2.452,-2.4546,-2.4568,-2.4602,-2.4612,-2.4626,-2.4641,-2.4646,-2.4666,-2.4674,-2.4689,-2.4709,-2.4734,-2.475,-2.4774,-2.4815,-2.4821,-2.4833,-2.4837,-2.4841,-2.4845,-2.4869,-2.4876,-2.4809,-2.4809,-2.4809,0,0,-2.4533,-2.4552,-2.4567,-2.4604,-2.462,-2.4647,-2.4634,-2.4662,-2.4682,-2.4678,-2.4714,-2.4726,-2.4748,-2.4787,-2.4805,-2.4797,-2.4865,-2.4844,-2.4847,-2.485,-2.4873,-2.4879,-2.4885,-2.4811,-2.481,-2.481,0,0,-2.4572,-2.4588,-2.4619,-2.4635,-2.466,-2.467,-2.4677,-2.4701,-2.4709,-2.4745,-2.4743,-2.4767,-2.4809,-2.4826,-2.484,-2.4886,-2.4884,-2.4893,-2.4916,-2.4939,-2.4945,-2.4949,-2.4968,-2.4974,-2.4897,-2.4897,-2.4897,0,-2.4585,-2.4627,-2.4634,-2.4664,-2.4681,-2.4679,-2.4711,-2.4726,-2.4757,-2.4768,-2.4759,-2.4814,-2.4829,-2.4873,-2.4885,-2.4895,-2.4904,-2.4892,-2.4943,-2.4948,-2.4953,-2.497,-2.4977,-2.4899,-2.4898,-2.4898,-2.4898,0,-2.4643,-2.4671,-2.4693,-2.4725,-2.4743,-2.4774,-2.4786,-2.4804,-2.4806,-2.4816,-2.4854,-2.4871,-2.49,-2.491,-2.4912,-2.4955,-2.495,-2.4942,-2.4926,-2.496,-2.4977,-2.4984,-2.49,-2.49,-2.49,-2.4899,0,0,-2.4688,-2.4724,-2.4732,-2.4748,-2.4775,-2.4797,-2.4827,-2.4857,-2.4873,-2.4894,-2.492,-2.4957,-2.495,-2.4966,-2.497,-2.499,-2.5028,-2.498,-2.4981,-2.499,-2.5078,-2.5086,-2.5093,-2.5026,-2.5027,-2.5028,-2.5077,0,-2.4731,-2.4786,-2.4794,-2.4843,-2.487,-2.4869,-2.4896,-2.4916,-2.4926,-2.495,-2.4961,-2.4988,-2.4976,-2.4987,-2.5007,-2.5019,-2.5046,-2.5015,-2.5051,-2.5052,-2.5048,-2.5102,-2.5109,-2.5155,-2.5083,-2.5085,-2.5085,0,-2.4788,-2.4813,-2.4865,-2.4891,-2.4903,-2.4927,-2.4955,-2.4977,-2.5,-2.5006,-2.5025,-2.5026,-2.5058,-2.5039,-2.5083,-2.5062,-2.5077,-2.5086,-2.5087,-2.5093,-2.5072,-2.511,-2.5169,-2.5177,-2.5095,-2.5094,-2.5094,0,-2.4819,-2.4865,-2.4902,-2.4915,-2.4945,-2.4963,-2.4976,-2.4997,-2.5015,-2.5039,-2.505,-2.5077,-2.5092,-2.5112,-2.5121,-2.5107,-2.5165,-2.5147,-2.5172,-2.5172,-2.5186,-2.5185,-2.525,-2.5192,-2.5192,-2.5192,-2.5192,0,-2.4867,-2.4899,-2.4917,-2.494,-2.4976,-2.4985,-2.502,-2.5033,-2.5052,-2.5078,-2.5078,-2.5102,-2.5111,-2.5136,-2.5143,-2.5179,-2.5185,-2.5192,-2.5194,-2.5193,-2.5193,-2.5204,-2.5202,-2.5194,-2.5193,-2.5193,-2.5193,0,-2.4908,-2.4921,-2.4962,-2.4988,-2.4995,-2.5021,-2.5043,-2.5065,-2.5075,-2.5108,-2.5116,-2.5132,-2.5162,-2.5173,-2.5208,-2.5213,-2.5256,-2.5254,-2.5249,-2.525,-2.5275,-2.5274,-2.5351,-2.5363,-2.5295,-2.5296,-2.5296,0,-2.4939,-2.4964,-2.4993,-2.5011,-2.5026,-2.5054,-2.5072,-2.5081,-2.51,-2.5129,-2.5148,-2.5178,-2.5203,-2.5251,-2.5265,-2.5293,-2.5293,-2.5318,-2.5297,-2.5296,-2.5296,-2.5295,-2.5299,-2.5323,-2.5324,-2.5324,-2.5325,0,-2.4993,-2.4999,-2.5026,-2.5056,-2.5078,-2.5101,-2.5124,-2.5138,-2.5151,-2.5172,-2.5204,-2.5223,-2.5261,-2.5291,-2.532,-2.5333,-2.5331,-2.5331,-2.5339,-2.5339,-2.5337,-2.5341,-2.5262,-2.5329,-2.5329,-2.5329,-2.5328,-2.5328,-2.5032,-2.5055,-2.508,-2.511,-2.5128,-2.515,-2.5173,-2.5187,-2.5214,-2.5246,-2.5249,-2.5284,-2.5306,-2.5345,-2.5359,-2.5386,-2.5379,-2.539,-2.5393,-2.5396,-2.5399,-2.5331,-2.5391,-2.5391,-2.5391,-2.5391,-2.5391,0,-2.5088,-2.5104,-2.5132,-2.5165,-2.5189,-2.5186,-2.5211,-2.5232,-2.5263,-2.5284,-2.5309,-2.5346,-2.5375,-2.5393,-2.5422,-2.5441,-2.5441,-2.5448,-2.5448,-2.5452,-2.5402,-2.5394,-2.5448,-2.5448,-2.5448,-2.5448,-2.5448,-2.5448,-2.5121,-2.516,-2.5169,-2.5218,-2.5233,-2.5268,-2.5283,-2.5303,-2.5321,-2.5363,-2.5388,-2.5399,-2.5419,-2.5451,-2.5478,-2.5482,-2.5494,-2.5502,-2.5506,-2.546,-2.5455,-2.5449,-2.5441,-2.5504,-2.5504,-2.5553,-2.5554,-2.5554]}]]